Temp
76 79 83 83 84 84 84 84 83 83 83 83 83 83 83 83 83 83 83 83 84 84 84 84 84 84 84 84 84 84 84 83 84 84 84 84 83 84 83 84 84 83 83
79 81 82 83 84 84 83 83 83 83 83 83 83 83 83 83 83 83 84 84 84 84 84 84 84 84 84 84 84 84 84 84 84 84 84 84 84 83 84 84 83 83 83
80 81 83 82 83 83 83 83 83 83 83 83 83 83 83 83 83 84 83 84 84 84 84 84 84 84 84 84 84 84 84 83 83 79 80 78 82 84 84 83 83 82 82
81 79 80 82 83 83 83 83 83 83 83 83 83 83 83 83 83 84 84 84 84 84 84 84 84 84 84 84 84 84 83 83 79 77 73 76 82 83 83 83 83 83 82
80 80 81 83 83 83 83 83 83 83 83 83 83 84 84 83 84 84 84 84 84 84 84 84 84 84 84 83 83 83 82 83 81 76 73 74 74 83 83 83 83 83 82
81 82 82 83 83 83 83 83 83 83 83 83 84 84 84 84 84 84 84 84 84 84 84 84 84 84 83 83 83 83 83 84 79 74 73 75 77 83 83 83 83 82 82
79 79 81 83 83 83 83 83 83 83 83 83 84 84 84 84 84 84 84 84 84 84 84 84 84 84 84 83 83 83 82 83 77 75 75 78 79 82 83 83 82 82 82
80 79 81 83 83 83 83 83 83 83 84 84 84 84 84 84 84 84 84 84 84 84 84 83 83 84 83 83 83 82 83 84 83 79 78 77 80 82 83 82 82 82 82
82 79 78 78 82 83 83 83 84 84 84 84 84 84 84 84 84 84 84 84 84 84 83 83 82 82 83 83 83 83 83 84 81 80 81 77 80 82 83 82 82 82 82
81 80 78 77 77 77 78 83 83 84 84 84 84 84 84 84 85 85 83 83 84 84 84 83 83 83 83 83 83 83 83 84 80 79 77 78 81 83 83 82 82 82 82
82 81 79 78 76 76 77 81 82 84 84 84 84 85 83 78 79 82 82 84 85 85 85 84 83 83 83 83 83 83 83 78 80 78 76 80 81 83 82 82 82 82 82
80 80 81 80 78 79 85 80 77 82 78 75 73 75 77 76 75 83 84 84 83 84 84 84 83 83 82 78 78 82 78 80 79 77 76 80 81 82 82 81 81 81 80
84 84 82 82 81 82 82 77 76 76 76 72 74 73 74 75 74 76 74 72 70 78 75 81 79 79 79 77 78 77 78 79 78 78 79 80 81 82 82 81 80 80 80
82 84 83 82 80 80 80 78 79 78 77 73 73 74 74 70 73 72 71 70 69 73 72 73 75 77 77 80 81 78 80 80 76 75 77 81 81 82 82 81 80 80 79
81 81 80 84 78 80 81 77 80 78 78 75 74 74 77 73 73 72 70 70 73 74 71 72 73 76 75 79 82 80 82 81 80 77 75 82 81 81 81 81 80 80 79
82 81 81 81 80 81 79 80 77 76 83 74 75 76 78 75 76 72 71 72 74 74 74 75 74 75 74 78 80 84 82 81 80 78 78 79 81 80 81 81 80 80 80
82 83 80 81 81 80 80 80 79 80 86 80 80 82 82 81 81 79 77 78 78 75 75 77 76 76 77 79 80 81 83 82 81 80 78 77 78 80 80 80 80 80 79
82 81 82 88 81 80 78 80 82 80 80 81 81 82 83 83 80 80 79 80 79 80 79 79 78 77 77 78 79 78 80 83 81 80 79 78 77 78 80 80 79 79 79
82 81 80 82 81 80 80 82 81 82 84 81 81 82 82 85 86 80 82 80 78 77 77 78 77 78 79 78 80 81 79 80 80 83 78 78 76 76 75 79 79 79 80
82 81 80 84 80 80 79 79 80 83 81 83 81 81 84 83 84 81 82 80 78 76 77 77 77 78 80 78 87 81 79 78 78 77 78 81 77 77 76 75 75 76 80
82 80 79 82 78 77 77 76 79 77 82 84 82 83 83 84 85 82 81 79 77 75 76 77 76 76 76 76 75 75 77 78 79 77 79 77 77 78 76 75 73 73 76
81 80 79 81 78 78 77 78 78 79 82 82 80 82 83 83 83 83 79 79 79 77 75 75 74 72 73 74 72 71 70 74 74 76 75 77 75 77 77 76 74 74 73
80 80 78 80 80 79 79 80 80 81 82 77 78 79 82 84 83 82 81 79 78 77 73 73 73 72 70 71 73 71 67 66 67 72 72 73 73 72 73 75 75 75 73
82 83 78 80 78 80 79 78 80 83 77 77 77 78 80 84 86 84 82 81 78 77 74 73 74 72 70 69 70 73 69 68 66 65 70 70 71 73 72 72 74 76 73
84 83 81 78 77 78 78 78 79 82 79 78 78 78 78 80 84 87 82 81 78 77 76 74 71 70 69 69 69 69 68 68 67 65 63 67 69 70 71 73 72 73 74
85 84 82 78 78 77 78 78 78 81 78 77 77 77 77 79 80 82 83 80 79 77 76 74 73 71 69 69 68 68 68 67 66 66 64 64 66 69 70 71 71 72 72
MSLP
1013.80 1013.68 1013.72 1013.91 1014.04 1014.18 1014.33 1014.44 1014.49 1014.56 1014.59 1014.54 1014.62 1014.63 1014.63 1014.71 1014.85 1014.87 1014.91 1014.97 1015.18 1015.42 1015.62 1015.85 1015.99 1016.01 1016.18 1016.41 1016.68 1016.86 1016.94 1017.18 1017.34 1017.43 1017.72 1017.98 1018.13 1017.89 1018.00 1018.08 1018.34 1018.46 1018.39
1013.37 1013.67 1013.87 1014.05 1014.18 1014.31 1014.46 1014.58 1014.65 1014.66 1014.71 1014.70 1014.71 1014.77 1014.85 1014.98 1015.15 1015.29 1015.29 1015.39 1015.60 1015.84 1016.01 1016.15 1016.30 1016.45 1016.65 1016.88 1017.04 1017.14 1017.51 1017.71 1017.76 1017.98 1018.27 1018.41 1018.37 1018.49 1018.42 1018.54 1018.66 1018.61 1018.47
1013.35 1013.74 1013.99 1014.16 1014.27 1014.51 1014.61 1014.68 1014.76 1014.86 1014.94 1015.01 1015.15 1015.26 1015.43 1015.55 1015.65 1015.60 1015.64 1015.65 1015.79 1016.03 1016.24 1016.37 1016.47 1016.70 1017.00 1017.24 1017.31 1017.55 1017.68 1017.86 1018.16 1018.64 1018.73 1018.83 1018.54 1018.52 1018.65 1018.75 1018.75 1018.76 1018.84
1013.20 1013.76 1014.07 1014.30 1014.46 1014.67 1014.74 1014.83 1014.93 1015.05 1015.20 1015.32 1015.50 1015.60 1015.69 1015.71 1015.81 1015.65 1015.69 1015.78 1015.96 1016.14 1016.33 1016.49 1016.61 1016.78 1017.17 1017.40 1017.53 1017.57 1017.77 1017.94 1018.46 1018.62 1018.26 1018.97 1018.75 1018.83 1018.93 1018.84 1018.86 1018.93 1019.05
1013.35 1013.80 1014.15 1014.42 1014.63 1014.77 1014.89 1015.07 1015.21 1015.37 1015.45 1015.54 1015.64 1015.72 1015.81 1015.84 1015.72 1015.74 1015.77 1015.81 1016.00 1016.23 1016.41 1016.56 1016.68 1016.89 1017.25 1017.47 1017.47 1017.69 1017.89 1018.22 1018.41 1018.66 1018.76 1018.81 1019.05 1018.85 1019.02 1018.98 1018.92 1018.93 1018.93
1013.48 1013.83 1014.27 1014.59 1014.76 1015.04 1015.21 1015.45 1015.64 1015.72 1015.72 1015.77 1015.79 1015.82 1015.85 1015.97 1016.02 1016.05 1016.13 1016.17 1016.37 1016.53 1016.56 1016.63 1016.71 1017.02 1017.38 1017.43 1017.41 1017.66 1017.92 1018.08 1018.49 1018.92 1018.93 1018.97 1019.03 1018.98 1018.95 1018.99 1019.05 1019.17 1019.20
1013.79 1014.05 1014.44 1014.72 1015.03 1015.16 1015.31 1015.56 1015.73 1015.87 1016.05 1016.19 1016.21 1016.17 1016.20 1016.29 1016.39 1016.51 1016.55 1016.55 1016.64 1016.71 1016.79 1016.76 1016.85 1017.09 1017.55 1017.55 1017.44 1017.70 1017.95 1018.49 1018.76 1018.97 1019.13 1018.94 1018.97 1019.04 1019.16 1019.29 1019.23 1019.36 1019.37
1013.69 1014.23 1014.54 1015.00 1015.14 1015.26 1015.53 1015.74 1015.94 1015.92 1016.17 1016.32 1016.31 1016.35 1016.38 1016.42 1016.46 1016.56 1016.57 1016.63 1016.74 1016.80 1016.97 1017.10 1017.17 1017.20 1017.56 1017.57 1017.60 1017.81 1017.94 1018.18 1018.56 1018.89 1019.08 1019.20 1019.20 1019.19 1019.36 1019.37 1019.45 1019.42 1019.44
1013.56 1014.25 1014.80 1015.19 1015.22 1015.39 1015.65 1015.87 1015.85 1015.95 1016.32 1016.35 1016.40 1016.60 1016.66 1016.73 1016.72 1016.75 1016.76 1016.75 1016.77 1017.05 1017.29 1017.43 1017.43 1017.57 1017.62 1017.72 1017.67 1017.91 1018.08 1018.21 1018.56 1018.79 1019.03 1019.21 1019.21 1019.28 1019.26 1019.47 1019.40 1019.40 1019.41
1013.57 1014.07 1014.80 1015.18 1015.38 1015.50 1015.75 1015.79 1015.82 1015.99 1016.11 1016.37 1016.54 1016.88 1016.97 1016.88 1016.58 1016.42 1016.39 1016.48 1016.91 1017.22 1017.29 1017.53 1017.53 1017.65 1017.71 1017.87 1017.77 1017.85 1018.05 1018.32 1018.61 1018.88 1019.22 1019.37 1019.28 1019.22 1019.37 1019.33 1019.39 1019.41 1019.44
1013.59 1014.09 1014.58 1014.93 1015.23 1015.32 1015.54 1015.61 1015.70 1015.85 1015.98 1016.20 1016.51 1016.57 1016.83 1017.01 1016.83 1016.78 1016.69 1016.58 1016.84 1017.33 1017.47 1017.42 1017.51 1017.58 1017.66 1017.74 1017.74 1017.76 1018.00 1018.54 1018.76 1019.17 1019.40 1019.36 1019.40 1019.30 1019.40 1019.51 1019.47 1019.40 1019.38
1013.60 1014.00 1014.35 1014.55 1014.97 1015.03 1015.08 1015.42 1015.78 1015.82 1015.86 1015.95 1016.40 1017.00 1017.10 1017.20 1017.64 1017.60 1017.18 1016.98 1017.02 1017.42 1017.75 1017.69 1017.75 1017.95 1018.01 1018.10 1018.04 1018.06 1018.45 1018.54 1018.91 1019.13 1019.18 1019.37 1019.38 1019.40 1019.54 1019.70 1019.66 1019.58 1019.61
1013.11 1013.37 1013.97 1014.35 1014.55 1014.67 1014.92 1015.30 1015.78 1015.88 1015.91 1016.04 1016.41 1017.52 1017.45 1017.71 1017.61 1017.36 1017.77 1017.77 1017.58 1017.74 1018.02 1018.00 1018.28 1018.37 1018.36 1018.17 1018.01 1018.04 1018.51 1018.71 1018.81 1018.93 1019.12 1019.18 1019.27 1019.39 1019.61 1019.82 1019.83 1019.91 1019.98
1012.67 1013.04 1013.68 1014.09 1014.47 1014.73 1014.86 1015.11 1015.53 1015.98 1015.96 1016.08 1016.46 1017.48 1016.67 1017.21 1017.52 1018.13 1016.96 1017.19 1017.52 1017.57 1017.91 1018.03 1018.24 1018.43 1018.33 1018.04 1017.69 1017.91 1018.04 1018.37 1018.86 1019.11 1019.28 1019.33 1019.42 1019.67 1019.86 1020.00 1020.00 1020.03 1020.16
1012.54 1013.16 1013.67 1013.97 1014.56 1014.56 1014.85 1015.42 1015.31 1015.61 1015.67 1016.11 1016.51 1017.12 1017.08 1017.38 1018.40 1018.20 1017.61 1017.10 1017.07 1017.18 1017.72 1018.03 1018.04 1017.86 1018.00 1017.74 1017.56 1017.77 1017.88 1018.35 1018.77 1019.15 1019.32 1019.55 1019.86 1019.84 1019.99 1020.07 1020.08 1020.17 1020.24
1012.58 1013.22 1013.59 1014.11 1014.33 1014.68 1014.94 1015.01 1015.41 1016.17 1016.04 1016.34 1016.10 1015.99 1016.92 1017.10 1017.33 1017.99 1017.98 1017.39 1017.20 1017.07 1016.97 1017.33 1018.02 1017.57 1017.73 1017.49 1017.45 1017.36 1017.90 1018.36 1018.58 1018.95 1019.24 1019.62 1019.77 1019.82 1019.99 1020.06 1020.10 1020.10 1020.18
1012.55 1013.04 1013.53 1014.12 1014.26 1014.59 1014.71 1014.71 1015.26 1016.24 1015.67 1015.78 1016.06 1015.96 1015.73 1016.15 1016.15 1016.30 1016.96 1017.03 1017.30 1017.25 1017.26 1017.71 1017.58 1016.87 1017.06 1017.33 1017.45 1017.37 1017.69 1018.19 1018.49 1018.77 1019.17 1019.46 1019.70 1019.91 1019.90 1019.90 1019.90 1019.95 1020.14
1012.47 1013.11 1013.48 1014.02 1014.43 1014.54 1014.71 1014.54 1014.72 1015.63 1015.68 1015.75 1015.75 1016.09 1016.33 1016.10 1016.17 1015.96 1016.20 1016.55 1016.78 1017.34 1017.44 1017.37 1017.42 1017.37 1017.15 1017.26 1017.24 1017.40 1017.57 1017.75 1018.15 1018.54 1018.94 1019.29 1019.55 1019.64 1019.71 1019.70 1019.80 1020.07 1020.30
1012.33 1012.95 1013.49 1013.92 1014.34 1014.60 1014.61 1014.19 1014.46 1015.21 1015.49 1015.54 1015.91 1015.96 1016.17 1016.12 1016.13 1016.29 1016.36 1016.73 1016.95 1017.03 1017.07 1017.17 1017.17 1017.14 1017.34 1017.08 1017.19 1017.39 1017.61 1017.73 1017.95 1018.23 1018.80 1019.05 1019.43 1019.55 1019.60 1019.63 1019.83 1019.98 1020.13
1012.19 1012.71 1013.37 1013.84 1014.32 1014.57 1014.81 1014.79 1014.62 1014.63 1015.42 1015.78 1016.04 1016.09 1016.25 1016.33 1016.28 1016.66 1016.85 1016.93 1016.97 1017.29 1017.40 1017.33 1017.29 1017.03 1017.18 1017.30 1017.19 1017.74 1017.72 1017.87 1017.85 1018.28 1018.65 1018.77 1019.29 1019.28 1019.30 1019.50 1019.69 1019.95 1019.98
1012.05 1012.74 1013.32 1013.59 1014.23 1014.68 1014.92 1015.19 1014.96 1015.07 1015.32 1015.70 1015.80 1015.95 1016.13 1016.27 1016.35 1016.37 1016.89 1017.12 1017.26 1017.37 1017.55 1017.61 1017.60 1017.69 1017.77 1017.63 1017.98 1018.21 1018.20 1018.02 1018.08 1018.43 1018.38 1018.64 1018.91 1018.83 1018.95 1019.28 1019.56 1019.74 1019.81
1011.80 1012.40 1013.23 1013.51 1014.04 1014.48 1014.73 1014.83 1014.78 1014.82 1015.32 1015.26 1015.37 1015.54 1015.68 1016.03 1016.14 1016.17 1016.71 1017.09 1017.09 1017.33 1017.49 1017.71 1017.89 1018.22 1018.33 1018.08 1018.62 1019.08 1019.19 1018.98 1018.84 1018.62 1018.59 1018.67 1018.70 1018.55 1018.86 1019.37 1019.58 1019.67 1019.65
1011.53 1012.15 1012.90 1013.48 1013.85 1014.15 1014.50 1014.78 1014.98 1015.10 1015.44 1015.70 1015.75 1015.75 1015.75 1015.85 1016.01 1016.11 1016.35 1016.69 1017.09 1017.28 1017.69 1017.96 1018.22 1018.38 1018.67 1018.53 1018.36 1018.75 1019.61 1019.82 1019.56 1019.10 1018.80 1018.56 1018.55 1018.67 1018.73 1018.64 1018.92 1019.25 1019.34
1011.13 1011.89 1012.76 1013.32 1013.82 1013.92 1014.41 1014.81 1015.07 1015.31 1015.73 1015.83 1015.82 1015.95 1016.04 1015.82 1015.90 1016.06 1016.33 1016.55 1017.07 1017.39 1017.82 1018.08 1018.30 1018.36 1018.49 1018.80 1018.72 1018.60 1018.70 1019.07 1019.73 1019.97 1019.26 1019.07 1018.84 1018.84 1018.67 1018.41 1018.43 1018.59 1018.70
1010.66 1011.52 1012.28 1013.25 1013.79 1013.99 1014.33 1014.66 1014.81 1015.03 1015.24 1015.52 1015.91 1016.16 1016.27 1016.16 1016.01 1016.10 1016.41 1016.73 1017.33 1017.44 1017.85 1018.06 1018.21 1018.28 1018.37 1018.63 1018.75 1018.96 1018.98 1019.03 1019.01 1019.63 1019.97 1019.47 1019.20 1018.73 1018.65 1018.36 1018.27 1018.45 1018.48
1010.03 1010.98 1011.88 1012.77 1013.55 1013.86 1014.27 1014.49 1014.59 1014.69 1015.26 1015.64 1016.03 1016.47 1016.52 1016.30 1016.35 1016.24 1016.37 1016.82 1017.12 1017.38 1017.69 1017.93 1018.09 1018.22 1018.38 1018.45 1018.64 1018.77 1018.98 1019.25 1019.40 1019.52 1019.89 1019.58 1019.36 1018.72 1018.48 1018.54 1018.40 1018.23 1018.09
Wind_Speed
6 6 10 11 12 13 15 14 13 13 13 14 13 12 12 12 12 13 13 13 14 13 14 14 14 13 12 14 14 14 14 15 15 17 16 16 15 10 12 16 15 11 13
12 7 10 11 12 13 14 14 14 13 14 13 12 13 13 13 13 12 12 13 14 14 14 14 13 13 13 12 12 13 14 13 14 15 15 13 15 15 16 16 14 11 14
14 9 9 12 13 14 14 14 14 14 14 13 13 13 14 13 13 12 13 12 13 13 13 13 13 13 14 13 11 12 12 13 16 18 15 6 7 14 14 14 13 13 12
13 9 8 12 13 14 14 14 13 14 14 14 13 12 14 13 12 12 11 11 11 10 11 11 11 12 14 13 11 10 10 15 19 16 2 3 4 11 12 12 12 12 11
14 12 11 13 13 13 12 14 13 13 13 13 12 13 13 12 12 12 11 10 9 8 9 10 10 11 12 12 10 9 8 11 17 13 7 2 2 9 10 11 10 8 10
15 13 12 14 14 14 13 12 13 12 11 12 11 11 11 11 10 9 9 7 8 8 9 8 10 10 12 10 8 6 7 15 17 8 4 2 4 9 9 9 10 9 8
13 10 9 14 13 13 13 12 12 10 10 10 9 8 8 8 7 7 6 5 5 6 7 9 9 12 12 10 6 6 5 15 6 6 5 5 5 8 10 9 9 8 7
15 10 10 13 13 13 13 11 11 9 10 9 7 7 6 7 7 6 6 5 5 6 7 7 6 10 11 10 7 6 4 4 11 8 7 5 8 8 9 9 6 7 6
14 11 7 7 10 13 11 10 9 8 8 6 5 5 4 5 5 4 3 3 5 6 6 5 7 8 10 11 9 6 3 4 7 6 8 3 7 8 10 7 7 7 6
14 12 10 7 6 6 6 9 7 6 5 4 3 2 3 5 6 7 6 4 2 5 8 6 7 9 12 12 9 5 3 5 7 7 5 3 7 8 8 7 6 5 4
12 12 10 8 7 7 6 7 7 7 5 3 1 4 4 3 5 5 4 4 5 5 7 10 9 10 12 13 11 9 6 3 6 5 3 8 7 9 10 9 7 6 5
15 12 11 9 7 8 7 6 5 5 3 3 3 4 3 3 3 3 6 12 11 8 5 7 9 7 7 2 2 5 2 4 5 6 4 9 7 11 11 12 12 12 12
15 10 11 8 9 8 5 4 2 2 3 1 5 6 7 7 6 2 3 3 4 6 3 1 1 2 2 3 3 3 4 5 5 4 7 11 12 13 13 13 13 13 12
8 10 10 9 7 4 4 4 4 3 3 3 4 5 5 7 10 2 4 3 3 1 1 3 2 4 5 5 5 5 4 5 4 3 5 9 12 13 13 13 13 12 12
8 10 10 8 7 5 4 4 2 4 3 4 5 8 5 4 8 3 4 1 3 2 3 5 4 5 3 6 5 6 8 8 9 4 3 12 11 12 13 12 12 12 11
11 14 10 7 6 6 4 5 4 4 4 5 3 3 8 5 6 9 7 4 2 4 4 4 4 8 5 4 6 6 7 7 9 8 5 7 13 13 13 12 12 12 11
12 12 9 9 7 6 7 5 4 9 7 5 5 5 5 3 1 4 9 7 6 6 4 2 6 0 2 1 5 4 7 7 8 8 7 5 7 12 12 12 12 11 11
13 11 9 9 8 6 3 3 2 4 4 5 4 5 6 2 0 2 4 4 5 3 5 4 5 3 4 3 4 3 4 8 7 8 7 6 5 5 9 12 11 11 10
14 11 9 10 7 7 4 3 3 4 4 4 4 4 3 5 6 4 4 4 5 4 4 3 3 3 3 1 4 4 4 7 7 7 8 8 6 5 4 11 12 12 11
14 10 7 10 8 6 4 3 3 4 4 4 4 4 5 4 5 5 5 6 5 5 4 4 5 4 4 2 2 5 2 3 5 5 8 7 7 8 7 7 6 7 12
14 10 7 12 8 4 2 1 1 1 3 6 5 7 6 4 4 5 4 6 4 5 3 4 3 4 5 4 3 4 3 3 3 4 7 4 7 10 7 7 5 4 6
16 12 8 12 9 5 3 2 1 3 2 4 4 5 6 5 4 7 6 5 6 4 5 4 4 2 2 3 3 2 1 5 4 2 4 4 4 6 6 6 8 7 5
16 13 10 11 11 7 6 1 1 4 5 3 3 3 3 4 4 7 6 5 5 5 4 3 3 4 2 3 2 5 2 3 1 3 1 1 3 2 4 5 7 8 8
16 14 9 11 9 8 6 3 5 7 6 3 4 3 3 3 4 6 6 7 6 4 5 3 2 1 2 2 2 3 2 5 3 1 3 3 1 2 3 3 4 5 7
17 15 13 10 8 7 5 5 4 3 4 4 4 7 4 3 3 6 7 6 6 4 4 5 3 3 2 3 3 1 1 1 1 3 2 3 2 4 5 4 4 4 5
17 16 15 13 11 8 7 5 5 6 3 5 6 5 4 3 2 5 6 6 6 6 5 3 3 3 3 2 2 2 3 2 1 3 2 2 3 4 4 3 3 4 4
Wind_Direction
120 127 107 107 105 106 103 105 102 99 97 101 112 106 104 106 106 104 103 105 97 93 95 96 95 94 95 91 91 91 90 92 91 91 85 79 66 67 114 98 90 97 95
131 123 113 108 111 102 102 104 107 104 106 104 108 108 107 106 106 109 107 102 101 96 93 90 90 92 94 94 95 97 99 95 94 90 72 78 79 79 81 90 93 92 89
120 124 118 111 111 107 109 108 107 106 101 104 105 105 104 106 110 111 107 106 102 103 100 99 99 97 93 95 99 98 98 98 88 64 28 16 82 85 92 96 98 92 94
129 114 110 117 114 113 113 112 111 110 105 105 102 108 109 112 113 117 116 109 104 103 101 104 101 99 100 100 101 101 107 107 102 95 20 20 54 91 97 97 102 106 106
113 114 126 122 116 116 111 109 106 105 106 109 113 113 115 117 122 120 121 119 111 114 113 110 109 109 105 102 106 110 120 116 113 122 159 148 320 106 107 99 115 112 106
114 117 124 122 121 115 117 109 112 109 113 115 118 119 121 122 122 122 116 120 115 111 112 118 114 111 104 109 111 113 98 96 125 119 134 181 144 121 122 110 108 108 110
115 118 118 121 123 121 121 117 114 122 122 117 117 123 125 124 123 118 124 127 114 110 113 117 116 120 113 118 117 106 94 113 120 128 147 106 114 109 118 117 109 112 110
124 121 121 124 126 126 125 121 124 135 128 127 138 142 150 151 153 149 154 150 144 136 131 120 127 130 125 133 135 114 87 75 121 109 109 103 111 120 117 106 106 120 104
130 122 128 126 137 129 134 135 137 144 130 144 157 166 182 183 181 163 154 153 146 145 136 138 137 142 141 143 154 151 148 56 114 125 118 108 111 109 120 111 108 111 110
134 140 141 144 142 138 144 152 162 148 151 144 188 199 238 245 218 185 166 175 136 134 133 135 138 140 143 149 160 172 197 94 98 102 101 115 112 108 124 115 103 107 109
140 142 146 163 162 154 160 176 183 174 168 174 300 246 256 258 257 230 179 144 89 63 122 130 141 150 155 159 169 183 188 120 120 104 112 112 116 116 106 95 89 85 91
145 152 156 166 161 163 170 166 184 181 149 157 128 347 223 260 37 62 57 60 57 75 99 153 142 157 152 154 178 195 53 112 120 132 126 134 133 108 104 101 93 86 81
155 154 154 159 158 176 143 164 156 165 169 13 61 32 59 82 36 36 31 26 350 39 10 115 110 166 257 181 195 219 157 151 135 137 149 147 129 125 120 110 104 95 90
155 157 132 140 148 127 156 149 178 156 188 161 112 127 179 101 157 47 230 180 22 112 175 274 224 197 221 245 207 193 202 136 119 126 141 134 133 123 122 116 111 109 103
148 116 135 133 127 147 99 95 144 161 160 171 137 138 139 133 139 160 272 346 117 182 185 198 226 233 171 220 257 169 134 134 128 131 130 140 130 132 130 127 126 119 111
118 127 134 125 137 155 141 171 188 100 157 189 135 228 157 155 153 179 197 221 203 214 213 223 167 207 197 168 199 142 126 140 134 142 144 149 149 148 143 143 137 129 118
132 131 124 133 140 127 167 163 186 139 159 160 151 116 71 128 359 81 182 194 199 218 215 181 243 264 323 144 213 144 142 137 149 150 143 155 160 157 156 155 150 142 128
134 138 137 142 143 172 176 207 225 145 189 142 140 126 127 105 70 109 95 106 128 162 197 173 173 217 233 195 137 172 156 149 149 157 150 158 158 167 174 170 165 154 141
141 148 158 140 163 172 193 258 270 146 149 144 138 126 111 88 66 124 102 97 89 81 51 37 40 113 158 78 141 166 159 145 157 161 158 168 170 170 180 189 176 175 164
147 155 149 152 158 172 184 247 280 113 115 128 127 129 117 96 90 103 90 93 94 83 49 33 38 17 71 37 99 88 114 123 151 160 174 173 181 185 187 191 189 188 185
150 151 161 144 160 146 168 198 172 123 130 123 128 124 120 115 65 111 130 115 113 98 78 39 22 57 34 23 69 18 32 143 118 141 176 181 189 196 188 187 187 187 201
157 161 160 152 148 174 179 198 187 131 157 136 133 115 101 93 61 81 108 117 119 100 77 58 43 28 44 27 107 74 36 343 9 31 118 153 133 192 186 192 200 198 195
161 166 158 160 160 173 202 149 347 76 110 82 84 103 115 134 127 110 107 99 125 108 101 88 58 71 102 358 94 143 93 205 280 325 15 152 156 141 145 179 191 190 191
165 164 150 160 166 195 177 190 192 148 144 191 145 150 168 174 165 130 114 91 109 123 106 113 109 96 131 170 23 44 96 145 159 305 306 295 285 246 221 211 143 197 171
164 167 157 155 172 209 182 219 208 162 158 142 140 146 167 210 202 134 129 121 117 110 126 117 101 77 89 132 152 161 44 354 137 124 249 309 319 244 235 206 161 190 204
167 167 165 155 180 195 189 219 230 179 142 132 139 151 174 181 183 151 125 134 140 138 136 136 127 108 109 102 108 88 144 154 230 90 72 280 217 266 220 224 189 178 197